Location: Vojnic
(45.3264°N, 15.6972°E)
Time: 20:16:18
(UTC+01:00)

Cosmos 1943 - Pass Details

Date: 30 April 2013
Orbit: 835 x 848 km, 71.0° (Epoch: 24 March)

Event Time Altitude Azimuth Distance (km) Brightness Sun altitude
Rises 23:00:08 0° 319° (NW) 3,413 7.7 -24.3°
Reaches altitude 10° 23:03:22 10° 301° (WNW) 2,466 6.4 -24.6°
Maximum altitude 23:06:58 18° 261° (W) 1,970 5.3 -24.9°
Enters shadow 23:09:38 13° 229° (SW) 2,244 5.3 -25.1°
